TimeEST,TemperatureF,Dew PointF,Humidity,Sea Level PressureIn,VisibilityMPH,Wind Direction,Wind SpeedMPH,Gust SpeedMPH,PrecipitationIn,Events,Conditions,WindDirDegrees,DateUTC
12:15 AM,41.0,32.0,70,30.07,10.0,Calm,Calm,-,N/A,,Clear,0,2013-02-05 05:15:00
12:35 AM,41.0,32.0,70,30.07,10.0,Calm,Calm,-,N/A,,Clear,0,2013-02-05 05:35:00
1:15 AM,41.0,32.0,70,30.05,10.0,Calm,Calm,-,N/A,,Clear,0,2013-02-05 06:15:00
1:35 AM,41.0,32.0,70,30.04,10.0,Calm,Calm,-,N/A,,Clear,0,2013-02-05 06:35:00
1:55 AM,41.0,32.0,70,30.03,10.0,Calm,Calm,-,N/A,,Clear,0,2013-02-05 06:55:00
2:15 AM,41.0,32.0,70,30.02,10.0,Calm,Calm,-,N/A,,Clear,0,2013-02-05 07:15:00
2:35 AM,41.0,32.0,70,30.02,10.0,Calm,Calm,-,N/A,,Clear,0,2013-02-05 07:35:00
2:55 AM,42.8,33.8,70,30.02,10.0,Calm,Calm,-,N/A,,Clear,0,2013-02-05 07:55:00
3:15 AM,42.8,33.8,70,30.01,10.0,SSW,3.5,-,N/A,,Clear,200,2013-02-05 08:15:00
3:35 AM,42.8,33.8,70,30.00,10.0,Calm,Calm,-,N/A,,Clear,0,2013-02-05 08:35:00
3:55 AM,41.0,33.8,76,30.00,10.0,Calm,Calm,-,N/A,,Clear,0,2013-02-05 08:55:00
4:15 AM,41.0,33.8,76,30.00,10.0,Calm,Calm,-,N/A,,Clear,0,2013-02-05 09:15:00
4:35 AM,39.2,32.0,75,30.00,10.0,Calm,Calm,-,N/A,,Clear,0,2013-02-05 09:35:00
4:55 AM,37.4,33.8,87,30.01,10.0,Calm,Calm,-,N/A,,Clear,0,2013-02-05 09:55:00
5:15 AM,37.4,33.8,87,30.01,7.0,Calm,Calm,-,N/A,,Clear,0,2013-02-05 10:15:00
5:35 AM,37.4,35.6,93,30.02,10.0,Calm,Calm,-,N/A,,Clear,0,2013-02-05 10:35:00
5:55 AM,37.4,35.6,93,30.02,10.0,Calm,Calm,-,N/A,,Clear,0,2013-02-05 10:55:00
6:15 AM,35.6,33.8,93,30.01,7.0,Calm,Calm,-,N/A,,Clear,0,2013-02-05 11:15:00
6:35 AM,35.6,35.6,100,30.02,10.0,Calm,Calm,-,N/A,,Clear,0,2013-02-05 11:35:00
6:55 AM,35.6,33.8,93,30.02,10.0,Calm,Calm,-,N/A,,Clear,0,2013-02-05 11:55:00
7:15 AM,35.6,33.8,93,30.03,10.0,Calm,Calm,-,N/A,,Clear,0,2013-02-05 12:15:00
7:35 AM,35.6,33.8,93,30.04,10.0,Calm,Calm,-,N/A,,Clear,0,2013-02-05 12:35:00
7:55 AM,35.6,35.6,100,30.05,10.0,Calm,Calm,-,N/A,,Clear,0,2013-02-05 12:55:00
8:15 AM,37.4,35.6,93,30.06,10.0,Calm,Calm,-,N/A,,Clear,0,2013-02-05 13:15:00
8:35 AM,41.0,39.2,93,30.06,10.0,Calm,Calm,-,N/A,,Clear,0,2013-02-05 13:35:00
8:55 AM,44.6,41.0,87,30.06,10.0,Calm,Calm,-,N/A,,Clear,0,2013-02-05 13:55:00
9:15 AM,50.0,44.6,82,30.06,10.0,SSW,4.6,-,N/A,,Clear,210,2013-02-05 14:15:00
9:35 AM,53.6,42.8,67,30.06,10.0,SW,5.8,-,N/A,,Clear,220,2013-02-05 14:35:00
9:55 AM,53.6,41.0,62,30.06,10.0,SSW,5.8,-,N/A,,Clear,210,2013-02-05 14:55:00
10:15 AM,55.4,42.8,63,30.06,10.0,SW,6.9,-,N/A,,Clear,220,2013-02-05 15:15:00
10:35 AM,57.2,41.0,55,30.06,10.0,SW,8.1,-,N/A,,Clear,230,2013-02-05 15:35:00
11:15 AM,62.6,39.2,42,30.05,10.0,SW,8.1,-,N/A,,Clear,220,2013-02-05 16:15:00
11:35 AM,62.6,37.4,39,30.04,10.0,SW,9.2,-,N/A,,Clear,220,2013-02-05 16:35:00
11:55 AM,62.6,37.4,39,30.03,10.0,SW,8.1,11.5,N/A,,Clear,230,2013-02-05 16:55:00
12:15 PM,64.4,33.8,32,30.02,10.0,WSW,9.2,19.6,N/A,,Scattered Clouds,240,2013-02-05 17:15:00
12:35 PM,64.4,35.6,34,30.01,10.0,WSW,9.2,17.3,N/A,,Clear,240,2013-02-05 17:35:00
12:55 PM,68.0,35.6,30,30.00,10.0,West,9.2,16.1,N/A,,Scattered Clouds,270,2013-02-05 17:55:00
1:15 PM,64.4,32.0,30,29.99,10.0,SW,11.5,-,N/A,,Scattered Clouds,230,2013-02-05 18:15:00
1:35 PM,66.2,21.2,18,29.97,10.0,WSW,5.8,16.1,N/A,,Mostly Cloudy,250,2013-02-05 18:35:00
1:55 PM,68.0,15.8,13,29.96,10.0,SW,12.7,19.6,N/A,,Scattered Clouds,220,2013-02-05 18:55:00
2:15 PM,69.8,12.2,11,29.96,10.0,West,9.2,17.3,N/A,,Clear,280,2013-02-05 19:15:00
2:35 PM,69.8,23.0,17,29.96,10.0,West,10.4,17.3,N/A,,Clear,270,2013-02-05 19:35:00
2:55 PM,69.8,17.6,14,29.96,10.0,West,11.5,17.3,N/A,,Clear,270,2013-02-05 19:55:00
3:15 PM,69.8,37.4,31,29.96,10.0,WSW,9.2,18.4,N/A,,Clear,250,2013-02-05 20:15:00
3:35 PM,69.8,39.2,33,29.95,10.0,SW,9.2,-,N/A,,Clear,230,2013-02-05 20:35:00
3:55 PM,69.8,39.2,33,29.95,10.0,WSW,9.2,-,N/A,,Clear,240,2013-02-05 20:55:00
4:15 PM,69.8,41.0,35,29.95,10.0,West,9.2,-,N/A,,Clear,270,2013-02-05 21:15:00
4:35 PM,69.8,41.0,35,29.95,10.0,WSW,8.1,-,N/A,,Clear,250,2013-02-05 21:35:00
4:55 PM,68.0,42.8,40,29.95,10.0,SW,8.1,-,N/A,,Clear,220,2013-02-05 21:55:00
5:15 PM,68.0,42.8,40,29.95,10.0,SW,6.9,-,N/A,,Scattered Clouds,220,2013-02-05 22:15:00
5:35 PM,68.0,42.8,40,29.95,10.0,WSW,6.9,-,N/A,,Mostly Cloudy,240,2013-02-05 22:35:00
6:15 PM,64.4,44.6,49,29.95,10.0,Calm,Calm,-,N/A,,Clear,0,2013-02-05 23:15:00
6:55 PM,59.0,44.6,59,29.96,10.0,Calm,Calm,-,N/A,,Mostly Cloudy,0,2013-02-05 23:55:00
7:35 PM,55.4,44.6,67,29.97,10.0,Calm,Calm,-,N/A,,Clear,0,2013-02-06 00:35:00
7:55 PM,53.6,44.6,72,29.98,10.0,Calm,Calm,-,N/A,,Clear,0,2013-02-06 00:55:00
8:15 PM,53.6,44.6,72,29.98,10.0,Calm,Calm,-,N/A,,Clear,0,2013-02-06 01:15:00
8:35 PM,53.6,42.8,67,29.99,10.0,Calm,Calm,-,N/A,,Clear,0,2013-02-06 01:35:00
8:55 PM,53.6,37.4,54,30.00,10.0,Calm,Calm,-,N/A,,Clear,0,2013-02-06 01:55:00
9:15 PM,51.8,37.4,58,30.00,10.0,Calm,Calm,-,N/A,,Clear,0,2013-02-06 02:15:00
9:35 PM,51.8,37.4,58,30.01,10.0,Calm,Calm,-,N/A,,Scattered Clouds,0,2013-02-06 02:35:00
9:55 PM,53.6,35.6,51,30.01,10.0,Calm,Calm,-,N/A,,Mostly Cloudy,0,2013-02-06 02:55:00
10:15 PM,51.8,37.4,58,30.02,10.0,Calm,Calm,-,N/A,,Scattered Clouds,0,2013-02-06 03:15:00
10:35 PM,50.0,39.2,66,30.02,10.0,Calm,Calm,-,N/A,,Clear,0,2013-02-06 03:35:00
10:55 PM,50.0,39.2,66,30.02,10.0,Calm,Calm,-,N/A,,Clear,0,2013-02-06 03:55:00
11:15 PM,48.2,44.6,87,30.02,10.0,Calm,Calm,-,N/A,,Clear,0,2013-02-06 04:15:00
11:35 PM,48.2,44.6,87,30.03,10.0,Calm,Calm,-,N/A,,Scattered Clouds,0,2013-02-06 04:35:00
11:55 PM,50.0,44.6,82,30.02,10.0,Calm,Calm,-,N/A,,Mostly Cloudy,0,2013-02-06 04:55:00